Regional Weather Roundup
Issued by NWS State College, PA

Home | Current Version | Previous Version | Graphics & Text | Print | Product List | Glossary Off
Versions: 1 2 3 4 5 6 7 8 9 10 11 12 13 14 15 16 17 18 19 20 21 22 23 24 25 26 27 28 29 30 31 32 33 34 35 36 37 38 39 40 41 42 43 44 45 46 47 48 49 50

000
ASUS41 KCTP 260903
RWRCTP

REGIONAL WEATHER ROUNDUP
NATIONAL WEATHER SERVICE STATE COLLEGE PA
400 AM EST MON JAN 26 2015

Note: "fair" indicates few or no clouds below 12,000 feet with no
significant weather and/or obstructions to visibility.

* = STATION THAT DOES NOT REPORT PRECIPITATION /E.G. RAIN...SNOW...ETC/
    THUNDER OR FOG.

PAZ002>004-007>009-013>016-020>023-029>032-261000-
WESTERN PENNSYLVANIA

CITY           SKY/WX    TMP DP  RH WIND       PRES   REMARKS
ERIE           CLOUDY    17   8  67 NE14      29.86F WCI   3
MEADVILLE      LGT SNOW  17  13  84 NE9       29.76F FOG     WCI   6
FRANKLIN*      CLOUDY    19  16  86 NE10      29.76F WCI   8
NEW CASTLE     LGT SNOW  21  20  96 N8        29.76F FOG     WCI  11
BEAVER COUNTY  NOT AVBL
BUTLER*        CLOUDY    27  25  93 NE9       29.72F
PITTSBURGH INT FLURRIES  28  27  96 N7        29.69F
PITTSBURGH     CLOUDY    31  28  89 VRB3      29.67F FOG
INDIANA*       CLOUDY    27  25  93 E10G20    29.75F FOG
LATROBE        CLOUDY    34  34 100 NE3       29.70F
WASHINGTON CO* CLOUDY    30  28  93 CALM      29.69F
$$

PAZ004>006-010>012-017>019-024>028-033>037-041-042-045-046-049>053-261000-
CENTRAL PENNSYLVANIA

CITY           SKY/WX    TMP DP  RH WIND       PRES   REMARKS
BRADFORD       LGT SNOW  12   7  80 E8        29.77F WCI   0
DUBOIS         LGT SNOW  19  16  88 E13       29.74F FOG     WCI   6
CLEARFIELD     LGT SNOW  18  15  88 NE8       29.80F FOG     WCI   8
JOHNSTOWN      LGT SNOW  24  21  88 E8        29.67F FOG
ALTOONA        LGT SNOW  24  22  91 NE9       29.78F FOG     WCI  14
STATE COLLEGE  LGT SNOW  18  15  87 NE14G21   29.85F WCI   4
WILLIAMSPORT   LGT SNOW  18  13  80 CALM      29.95F
SELINSGROVE    LGT SNOW  20  16  84 NE12      29.93F VSB 3/4 WCI   8
FT INDIANTOWN  LGT SNOW  25  21  86 E13       29.91R FOG     WCI  13
CAPITAL CITY   LGT SNOW  27  23  85 E13       29.89F FOG
HARRISBURG     LGT SNOW  26  23  88 E7        29.89S
YORK           LGT SNOW  29  27  92 E12       29.85F FOG
$$

PAZ038>040-043-044-047-048-054-055-060>062-067>071-261000-
EASTERN PENNSYLVANIA

CITY           SKY/WX    TMP DP  RH WIND       PRES   REMARKS
SCRANTON       LGT SNOW  16  11  80 NE7       29.94S VSB 1   WCI   6
MOUNT POCONO   LGT SNOW  14   9  80 E10       29.85F WCI   1
ALLENTOWN      LGT SNOW  22  16  78 NE16      29.96F WCI   8
QUAKERTOWN*    NOT AVBL
READING        LGT SNOW  24  20  84 NE7       29.93S FOG
LANCASTER      LGT SNOW  25  21  85 E15       29.89R FOG     WCI  13
COATESVILLE    FLURRIES  27  25  93 E14G26    29.89F
POTTSTOWN      LGT SNOW  24  22  91 E6        29.95F FOG
BLUE BELL      CLOUDY    28  25  86 NE9       29.93F
DOYLESTOWN     LGT SNOW  23  22  96 VRB6      29.94F FOG
WILLOW GROVE   NOT AVBL
NORTH PHILA    CLOUDY    30  21  69 NE10      29.96F
PHILADELPHIA   CLOUDY    30  22  72 NE12      29.94F
$$



USA.gov is the U.S. government's official web portal to all federal, state and local government web resources and services.